TimeEDT,TemperatureF,Dew PointF,Humidity,Sea Level PressureIn,VisibilityMPH,Wind Direction,Wind SpeedMPH,Gust SpeedMPH,PrecipitationIn,Events,Conditions,WindDirDegrees,DateUTC
12:14 AM,56.7,53.2,88,30.30,10.0,Calm,Calm,-,N/A,,Clear,0,2013-08-25 04:14:00
12:33 AM,57.0,54.1,90,30.30,10.0,Calm,Calm,-,N/A,,Clear,0,2013-08-25 04:33:00
12:53 AM,56.5,53.6,90,30.30,10.0,Calm,Calm,-,N/A,,Clear,0,2013-08-25 04:53:00
1:14 AM,56.7,54.1,91,30.30,10.0,Calm,Calm,-,N/A,,Clear,0,2013-08-25 05:14:00
1:33 AM,55.8,52.9,90,30.30,10.0,Calm,Calm,-,N/A,,Clear,0,2013-08-25 05:33:00
1:53 AM,55.9,53.2,91,30.30,10.0,Calm,Calm,-,N/A,,Clear,0,2013-08-25 05:53:00
2:14 AM,55.0,52.5,91,30.30,10.0,Calm,Calm,-,N/A,,Clear,0,2013-08-25 06:14:00
2:33 AM,55.2,52.7,91,30.30,10.0,Calm,Calm,-,N/A,,Clear,0,2013-08-25 06:33:00
2:53 AM,55.2,52.9,92,30.31,10.0,Calm,Calm,-,N/A,,Scattered Clouds,0,2013-08-25 06:53:00
3:14 AM,57.0,54.9,92,30.30,10.0,Calm,Calm,-,N/A,,Scattered Clouds,0,2013-08-25 07:14:00
3:33 AM,55.8,53.2,91,30.30,10.0,Calm,Calm,-,N/A,,Scattered Clouds,0,2013-08-25 07:33:00
3:53 AM,56.3,54.0,92,30.32,10.0,Calm,Calm,-,N/A,,Scattered Clouds,0,2013-08-25 07:53:00
4:14 AM,54.3,52.0,92,30.32,7.0,Calm,Calm,-,N/A,,Scattered Clouds,0,2013-08-25 08:14:00
4:33 AM,54.5,52.3,92,30.32,7.0,Calm,Calm,-,N/A,,Scattered Clouds,0,2013-08-25 08:33:00
4:53 AM,54.0,52.0,93,30.32,3.0,Calm,Calm,-,N/A,,Scattered Clouds,0,2013-08-25 08:53:00
5:14 AM,53.8,51.8,93,30.33,2.5,Calm,Calm,-,N/A,,Clear,0,2013-08-25 09:14:00
5:33 AM,53.2,51.4,94,30.33,4.0,Calm,Calm,-,N/A,,Clear,0,2013-08-25 09:33:00
5:53 AM,54.5,52.5,93,30.33,0.8,Calm,Calm,-,N/A,,Unknown,0,2013-08-25 09:53:00
6:14 AM,52.7,50.5,92,30.34,1.0,Calm,Calm,-,N/A,,Unknown,0,2013-08-25 10:14:00
6:33 AM,52.7,50.7,93,30.34,0.5,Calm,Calm,-,N/A,,Unknown,0,2013-08-25 10:33:00
6:53 AM,51.8,50.0,94,30.35,0.2,Calm,Calm,-,N/A,,Unknown,0,2013-08-25 10:53:00
7:14 AM,52.3,50.5,94,30.35,2.0,Calm,Calm,-,N/A,,Clear,0,2013-08-25 11:14:00
7:33 AM,54.0,52.2,94,30.36,7.0,Calm,Calm,-,N/A,,Clear,0,2013-08-25 11:33:00
7:53 AM,56.1,54.3,94,30.37,7.0,Calm,Calm,-,N/A,,Clear,0,2013-08-25 11:53:00
8:13 AM,58.8,57.0,94,30.37,5.0,Calm,Calm,-,N/A,,Clear,0,2013-08-25 12:13:00
8:33 AM,61.0,59.0,93,30.37,7.0,Calm,Calm,-,N/A,,Clear,0,2013-08-25 12:33:00
8:53 AM,63.9,60.4,89,30.37,10.0,Calm,Calm,-,N/A,,Clear,0,2013-08-25 12:53:00
9:13 AM,67.3,60.4,79,30.36,10.0,South,3.5,-,N/A,,Clear,190,2013-08-25 13:13:00
9:34 AM,69.6,61.5,75,30.36,10.0,SSW,3.5,-,N/A,,Clear,210,2013-08-25 13:34:00
9:53 AM,71.4,61.5,71,30.35,10.0,SW,5.8,-,N/A,,Clear,220,2013-08-25 13:53:00
10:13 AM,72.7,61.2,67,30.35,10.0,SW,6.9,-,N/A,,Clear,220,2013-08-25 14:13:00
10:34 AM,74.8,61.3,63,30.35,10.0,SSW,6.9,-,N/A,,Clear,210,2013-08-25 14:34:00
10:53 AM,75.9,61.0,60,30.35,10.0,SSW,8.1,-,N/A,,Clear,210,2013-08-25 14:53:00
11:13 AM,77.0,60.8,57,30.34,10.0,SSW,6.9,-,N/A,,Clear,210,2013-08-25 15:13:00
11:34 AM,77.9,60.1,54,30.35,10.0,SW,6.9,-,N/A,,Clear,230,2013-08-25 15:34:00
11:53 AM,78.4,58.5,50,30.35,10.0,SW,6.9,-,N/A,,Clear,220,2013-08-25 15:53:00
12:13 PM,79.3,57.9,48,30.35,10.0,SW,4.6,-,N/A,,Clear,220,2013-08-25 16:13:00
12:34 PM,79.5,55.4,43,30.35,10.0,Calm,Calm,-,N/A,,Clear,0,2013-08-25 16:34:00
12:53 PM,80.1,54.5,41,30.34,10.0,Calm,Calm,-,N/A,,Clear,0,2013-08-25 16:53:00
1:13 PM,80.6,52.5,38,30.33,10.0,WSW,3.5,-,N/A,,Clear,240,2013-08-25 17:13:00
1:34 PM,80.6,53.8,39,30.33,10.0,South,4.6,-,N/A,,Clear,180,2013-08-25 17:34:00
1:53 PM,80.8,52.3,37,30.32,10.0,SSW,4.6,-,N/A,,Clear,210,2013-08-25 17:53:00
2:13 PM,81.3,54.3,39,30.32,10.0,SW,5.8,-,N/A,,Scattered Clouds,230,2013-08-25 18:13:00
2:34 PM,81.1,52.7,37,30.32,10.0,Calm,Calm,-,N/A,,Clear,0,2013-08-25 18:34:00
2:53 PM,81.7,54.0,38,30.31,10.0,SSW,4.6,-,N/A,,Clear,210,2013-08-25 18:53:00
3:13 PM,81.5,51.3,35,30.31,10.0,South,5.8,-,N/A,,Clear,180,2013-08-25 19:13:00
3:34 PM,81.9,52.9,37,30.29,7.0,SW,5.8,-,N/A,,Clear,230,2013-08-25 19:34:00
3:53 PM,82.4,52.9,36,30.29,10.0,SW,4.6,-,N/A,,Clear,230,2013-08-25 19:53:00
4:13 PM,82.2,52.3,35,30.29,10.0,South,3.5,-,N/A,,Clear,180,2013-08-25 20:13:00
4:34 PM,82.0,52.0,35,30.28,10.0,WSW,3.5,-,N/A,,Clear,240,2013-08-25 20:34:00
4:53 PM,81.5,54.1,39,30.28,10.0,South,4.6,-,N/A,,Clear,180,2013-08-25 20:53:00
5:13 PM,81.5,55.8,41,30.27,10.0,WSW,5.8,-,N/A,,Clear,240,2013-08-25 21:13:00
5:34 PM,81.1,53.8,39,30.27,10.0,SSW,5.8,-,N/A,,Clear,210,2013-08-25 21:34:00
5:53 PM,80.6,54.3,40,30.27,10.0,SSW,8.1,-,N/A,,Clear,210,2013-08-25 21:53:00
6:13 PM,79.9,54.5,41,30.27,10.0,SSW,5.8,-,N/A,,Clear,210,2013-08-25 22:13:00
6:33 PM,79.2,55.6,44,30.25,10.0,SSW,5.8,-,N/A,,Clear,200,2013-08-25 22:33:00
6:53 PM,77.9,57.9,50,30.25,10.0,SSW,4.6,-,N/A,,Clear,200,2013-08-25 22:53:00
7:14 PM,76.6,57.0,51,30.25,10.0,SSW,4.6,-,N/A,,Clear,210,2013-08-25 23:14:00
7:33 PM,74.7,58.5,57,30.25,10.0,SSW,3.5,-,N/A,,Clear,210,2013-08-25 23:33:00
7:53 PM,72.0,59.0,64,30.24,10.0,SSW,3.5,-,N/A,,Clear,200,2013-08-25 23:53:00
8:14 PM,67.8,59.5,75,30.25,10.0,SSW,3.5,-,N/A,,Clear,200,2013-08-26 00:14:00
8:33 PM,66.9,59.2,76,30.26,7.0,SSW,4.6,-,N/A,,Clear,200,2013-08-26 00:33:00
8:53 PM,64.2,58.6,82,30.26,10.0,SSW,3.5,-,N/A,,Clear,200,2013-08-26 00:53:00
9:14 PM,63.5,58.1,83,30.26,10.0,Calm,Calm,-,N/A,,Clear,0,2013-08-26 01:14:00
9:33 PM,66.0,58.5,77,30.27,10.0,Calm,Calm,-,N/A,,Clear,0,2013-08-26 01:33:00
9:53 PM,62.8,57.9,84,30.27,10.0,SW,3.5,-,N/A,,Clear,230,2013-08-26 01:53:00
10:14 PM,64.0,57.7,80,30.28,10.0,Calm,Calm,-,N/A,,Clear,0,2013-08-26 02:14:00
10:33 PM,62.1,57.6,85,30.27,10.0,Calm,Calm,-,N/A,,Clear,0,2013-08-26 02:33:00
10:53 PM,62.4,57.6,84,30.28,10.0,Calm,Calm,-,N/A,,Clear,0,2013-08-26 02:53:00
11:14 PM,61.7,57.2,85,30.28,10.0,Calm,Calm,-,N/A,,Clear,0,2013-08-26 03:14:00
11:33 PM,59.9,56.1,87,30.28,10.0,Calm,Calm,-,N/A,,Clear,0,2013-08-26 03:33:00
11:53 PM,61.7,57.6,86,30.28,10.0,Calm,Calm,-,N/A,,Clear,0,2013-08-26 03:53:00